"startDT [UTC]","vpos","CH4 [ppm]","stdev(CH4) [ppm]","CO2 [ppm]","stdev(CO2) [ppm]","H2O_reported [%]","stdev(H2O_reported)","CavityPressure [torr]","CavityTemp [C]","OutletValve","CH4_dry [ppm]","CO2_dry [ppm]","DasTemp [C]","EtalonTemp [C]","WarmBoxTemp [C]","MPVPosition","T_ECpre [C]","T_EC1 [C]","T_EC2 [C]","p_inlet [hPa]","p_in [hPa]","p_out [hPa]","T_inlet [C]","RH_inlet [%]","dwpt_inlet [C]","T_vent [C]","RH_vent [%]","dwpt_vent [C]","flow_vent [l min-1]","flow_inlet [l min-1]","dwpt_sample [C]","T_room [C]"
2016-03-19 00:00:00,3.0,,,,,,,,,,,,,,,,,,0.08,-272.78,-272.83,-10,473,-948,23.6,4.2,-20.1,23.8,4.3,-19.9,5.73,2.06,-14.4,28.7
2016-03-19 00:01:00,3.0,,,,,,,,,,,,,,,,,,0.09,-272.76,-272.82,-10,473,-948,23.6,4.3,-20.1,23.8,4.3,-19.8,5.73,1.87,-14.4,28.7
2016-03-19 00:02:00,3.0,,,,,,,,,,,,,,,,,,0.09,-272.76,-272.82,-9,473,-948,23.6,4.3,-20.1,23.8,4.3,-19.8,5.73,1.76,-14.4,28.7
2016-03-19 00:03:00,3.0,,,,,,,,,,,,,,,,,,0.08,-272.78,-272.83,-10,473,-948,23.6,4.3,-20.1,23.7,4.3,-19.8,5.73,2.04,-14.4,28.7
2016-03-19 00:04:00,3.0,,,,,,,,,,,,,,,,,,0.09,-272.77,-272.83,-11,473,-948,23.6,4.3,-20.0,23.7,4.3,-19.8,5.73,2.02,-14.4,28.6
2016-03-19 00:05:00,3.0,,,,,,,,,,,,,,,,,,0.09,-272.76,-272.82,-10,473,-948,23.7,4.3,-20.0,23.7,4.3,-19.8,5.73,1.75,-14.4,28.6
2016-03-19 00:06:00,3.0,,,,,,,,,,,,,,,,,,0.09,-272.77,-272.83,-9,473,-948,23.6,4.3,-20.0,23.7,4.3,-19.8,5.73,1.91,-14.4,28.6
2016-03-19 00:07:00,3.0,,,,,,,,,,,,,,,,,,0.08,-272.77,-272.83,-10,473,-948,23.7,4.3,-20.0,23.7,4.4,-19.7,5.73,2.10,-14.4,28.6
2016-03-19 00:08:00,3.0,,,,,,,,,,,,,,,,,,0.09,-272.75,-272.82,-11,473,-948,23.7,4.3,-20.1,23.7,4.4,-19.7,5.73,1.84,-14.4,28.7
2016-03-19 00:09:00,3.0,,,,,,,,,,,,,,,,,,0.09,-272.76,-272.83,-11,473,-948,23.7,4.3,-19.9,23.7,4.4,-19.7,5.73,1.78,-14.4,28.6
2016-03-19 00:10:00,3.0,,,,,,,,,,,,,,,,,,0.09,-272.77,-272.83,-10,473,-948,23.7,4.3,-19.8,23.7,4.4,-19.6,5.73,2.04,-14.4,28.6
2016-03-19 00:11:00,3.0,,,,,,,,,,,,,,,,,,0.09,-272.76,-272.83,-9,473,-948,23.7,4.3,-19.9,23.7,4.4,-19.6,5.73,2.02,-14.4,28.6
2016-03-19 00:12:00,3.0,,,,,,,,,,,,,,,,,,0.09,-272.76,-272.83,-10,473,-948,23.7,4.3,-19.9,23.7,4.4,-19.6,5.73,1.77,-14.3,28.6
2016-03-19 00:13:00,3.0,,,,,,,,,,,,,,,,,,0.09,-272.77,-272.83,-11,473,-948,23.8,4.3,-19.9,23.7,4.4,-19.6,5.73,1.86,-14.3,28.6
2016-03-19 00:14:00,3.0,,,,,,,,,,,,,,,,,,0.09,-272.77,-272.83,-11,473,-948,23.8,4.3,-19.8,23.7,4.4,-19.6,5.73,2.10,-14.3,28.6
2016-03-19 00:15:00,3.0,,,,,,,,,,,,,,,,,,0.09,-272.76,-272.82,-10,474,-948,23.8,4.3,-19.8,23.8,4.4,-19.7,5.73,1.90,-14.3,28.6
2016-03-19 00:16:00,3.0,,,,,,,,,,,,,,,,,,0.09,-272.77,-272.82,-9,474,-948,23.9,4.3,-19.8,23.8,4.4,-19.7,5.73,1.75,-14.3,28.6
2016-03-19 00:17:00,3.0,,,,,,,,,,,,,,,,,,0.09,-272.78,-272.82,-11,474,-948,23.8,4.3,-20.0,23.8,4.4,-19.6,5.73,2.02,-14.3,28.7
2016-03-19 00:18:00,3.0,,,,,,,,,,,,,,,,,,0.09,-272.77,-272.83,-11,474,-948,23.9,4.2,-20.0,23.8,4.4,-19.7,5.73,2.04,-14.3,28.7
2016-03-19 00:19:00,3.0,,,,,,,,,,,,,,,,,,0.09,-272.76,-272.83,-10,474,-948,23.9,4.2,-19.9,23.8,4.4,-19.7,5.73,1.75,-14.3,28.6
2016-03-19 00:20:00,0.0,,,,,,,,,,,,,,,,,,0.08,-272.77,-272.83,-12,516,-947,23.9,4.3,-19.9,23.8,4.4,-19.7,5.73,1.93,-14.3,28.6
2016-03-19 00:21:00,0.0,,,,,,,,,,,,,,,,,,0.09,-272.76,-272.82,-11,516,-947,23.9,4.3,-19.7,23.7,4.4,-19.7,5.73,2.02,-14.3,28.6
2016-03-19 00:22:00,0.0,,,,,,,,,,,,,,,,,,0.09,-272.76,-272.82,-12,517,-947,23.9,4.3,-19.8,23.7,4.4,-19.7,5.73,2.07,-14.3,28.6
2016-03-19 00:23:00,0.0,,,,,,,,,,,,,,,,,,0.09,-272.77,-272.83,-12,517,-947,23.9,4.3,-19.8,23.8,4.4,-19.5,5.73,1.98,-14.3,28.6
2016-03-19 00:24:00,0.0,,,,,,,,,,,,,,,,,,0.09,-272.76,-272.83,-12,517,-947,23.9,4.3,-19.7,23.7,4.4,-19.6,5.73,1.87,-14.2,28.5
2016-03-19 00:25:00,0.0,,,,,,,,,,,,,,,,,,0.09,-272.76,-272.83,-12,517,-947,23.9,4.3,-19.7,23.7,4.4,-19.7,5.73,1.81,-14.3,28.6
2016-03-19 00:26:00,0.0,,,,,,,,,,,,,,,,,,0.09,-272.77,-272.83,-12,517,-947,23.9,4.3,-19.8,23.8,4.4,-19.6,5.73,1.91,-14.2,28.5
2016-03-19 00:27:00,0.0,,,,,,,,,,,,,,,,,,0.09,-272.77,-272.83,-11,517,-947,24.0,4.3,-19.8,23.8,4.4,-19.6,5.73,2.06,-14.2,28.5
2016-03-19 00:28:00,0.0,,,,,,,,,,,,,,,,,,0.09,-272.76,-272.82,-11,517,-947,23.9,4.3,-19.8,23.7,4.4,-19.7,5.73,2.06,-14.2,28.5
2016-03-19 00:29:00,0.0,,,,,,,,,,,,,,,,,,0.09,-272.77,-272.82,-11,517,-947,24.0,4.3,-19.7,23.7,4.4,-19.5,5.73,1.92,-14.2,28.5
2016-03-19 00:30:00,0.0,,,,,,,,,,,,,,,,,,0.09,-272.77,-272.83,-11,517,-947,24.0,4.3,-19.7,23.7,4.4,-19.6,5.73,1.81,-14.2,28.5
2016-03-19 00:31:00,0.0,,,,,,,,,,,,,,,,,,0.09,-272.77,-272.82,-12,517,-947,24.0,4.4,-19.6,23.8,4.5,-19.4,5.73,1.86,-14.2,28.6
2016-03-19 00:32:00,0.0,,,,,,,,,,,,,,,,,,0.09,-272.76,-272.82,-12,517,-947,23.9,4.3,-19.7,23.8,4.5,-19.3,5.73,2.00,-14.2,28.5
2016-03-19 00:33:00,0.0,,,,,,,,,,,,,,,,,,0.08,-272.77,-272.83,-12,517,-947,24.0,4.4,-19.6,23.7,4.5,-19.5,5.73,2.08,-14.2,28.5
2016-03-19 00:34:00,0.0,,,,,,,,,,,,,,,,,,0.08,-272.76,-272.83,-12,517,-947,24.0,4.3,-19.7,23.7,4.5,-19.5,5.73,1.99,-14.2,28.5
2016-03-19 00:35:00,0.0,,,,,,,,,,,,,,,,,,0.09,-272.76,-272.82,-12,517,-947,23.9,4.3,-19.8,23.8,4.5,-19.4,5.73,1.85,-14.2,28.5
2016-03-19 00:36:00,0.0,,,,,,,,,,,,,,,,,,0.09,-272.77,-272.83,-11,517,-947,23.9,4.3,-19.8,23.7,4.4,-19.6,5.73,1.83,-14.2,28.4
2016-03-19 00:37:00,0.0,,,,,,,,,,,,,,,,,,0.09,-272.77,-272.83,-11,517,-947,23.9,4.3,-19.7,23.7,4.5,-19.5,5.73,1.90,-14.2,28.3
2016-03-19 00:38:00,0.0,,,,,,,,,,,,,,,,,,0.09,-272.76,-272.82,-11,517,-947,23.9,4.3,-19.8,23.7,4.5,-19.5,5.73,2.01,-14.1,28.4
2016-03-19 00:39:00,0.0,,,,,,,,,,,,,,,,,,0.09,-272.77,-272.82,-12,517,-947,23.9,4.3,-19.7,23.7,4.5,-19.5,5.73,2.07,-14.1,28.4
2016-03-19 00:40:00,0.0,,,,,,,,,,,,,,,,,,0.08,-272.77,-272.83,-12,517,-947,23.9,4.4,-19.6,23.7,4.5,-19.3,5.73,2.01,-14.1,28.4
2016-03-19 00:41:00,0.0,,,,,,,,,,,,,,,,,,0.09,-272.76,-272.83,-12,517,-947,23.9,4.3,-19.7,23.6,4.5,-19.5,5.73,1.86,-14.1,28.3
2016-03-19 00:42:00,0.0,,,,,,,,,,,,,,,,,,0.09,-272.77,-272.82,-12,517,-947,23.9,4.3,-19.8,23.7,4.5,-19.5,5.73,1.81,-14.1,28.4
2016-03-19 00:43:00,0.0,,,,,,,,,,,,,,,,,,0.09,-272.78,-272.82,-12,517,-947,23.9,4.3,-19.8,23.7,4.4,-19.6,5.73,1.93,-14.1,28.4
2016-03-19 00:44:00,0.0,,,,,,,,,,,,,,,,,,0.09,-272.77,-272.83,-11,518,-947,23.9,4.3,-19.8,23.7,4.5,-19.5,5.73,2.07,-14.1,28.4
2016-03-19 00:45:00,0.0,,,,,,,,,,,,,,,,,,0.09,-272.76,-272.82,-11,518,-947,23.9,4.3,-19.8,23.7,4.4,-19.5,5.73,2.05,-14.1,28.4
2016-03-19 00:46:00,0.0,,,,,,,,,,,,,,,,,,0.09,-272.76,-272.83,-11,517,-947,23.9,4.3,-19.7,23.7,4.5,-19.5,5.73,1.91,-14.1,28.4
2016-03-19 00:47:00,0.0,,,,,,,,,,,,,,,,,,0.08,-272.77,-272.82,-12,517,-947,23.9,4.3,-19.7,23.7,4.5,-19.5,5.73,1.82,-14.1,28.4
2016-03-19 00:48:00,0.0,,,,,,,,,,,,,,,,,,0.09,-272.76,-272.82,-12,517,-947,23.9,4.3,-19.7,23.6,4.5,-19.5,5.73,1.87,-14.1,28.3
2016-03-19 00:49:00,0.0,,,,,,,,,,,,,,,,,,0.09,-272.76,-272.82,-12,517,-947,23.9,4.3,-19.8,23.6,4.5,-19.5,5.73,2.00,-14.1,28.4
2016-03-19 00:50:00,0.0,,,,,,,,,,,,,,,,,,0.09,-272.77,-272.83,-12,517,-947,23.9,4.3,-19.9,23.7,4.5,-19.5,5.73,2.08,-14.1,28.3
2016-03-19 00:51:00,0.0,,,,,,,,,,,,,,,,,,0.09,-272.76,-272.83,-12,517,-947,23.9,4.3,-19.9,23.6,4.4,-19.8,5.73,2.01,-14.1,28.3
2016-03-19 00:52:00,0.0,,,,,,,,,,,,,,,,,,0.09,-272.76,-272.82,-11,517,-947,23.9,4.3,-19.9,23.7,4.5,-19.5,5.73,1.88,-14.1,28.3
2016-03-19 00:53:00,0.0,,,,,,,,,,,,,,,,,,0.09,-272.77,-272.83,-11,517,-947,23.9,4.3,-19.8,23.6,4.4,-19.6,5.73,1.82,-14.1,28.3
2016-03-19 00:54:00,0.0,1.93425,0.00027,405.140,0.036,0.0259,0.0022,139.998,46.731,31770.55018,1.93472,405.264,31.813,45.071,45.000,0.00,0.09,-272.78,-272.82,-11,517,-947,23.9,4.3,-19.9,23.6,4.4,-19.6,5.73,1.91,-14.1,28.3
2016-03-19 00:55:00,0.0,1.93476,0.00060,405.162,0.050,0.0267,0.0021,139.997,46.692,31741.31039,1.93522,405.292,31.812,45.071,45.000,0.00,0.09,-272.77,-272.82,-11,517,-947,23.9,4.3,-19.8,23.6,4.4,-19.7,5.73,2.05,-14.0,28.3
2016-03-19 00:56:00,0.0,1.93561,0.00035,405.260,0.036,0.0264,0.0017,139.993,46.638,31700.17250,1.93609,405.387,31.755,45.071,45.000,0.00,0.09,-272.77,-272.82,-12,517,-947,23.8,4.3,-19.8,23.6,4.5,-19.6,5.73,2.06,-14.0,28.3
2016-03-19 00:57:00,0.0,,,,,,,,,,,,,,,,,,0.08,-272.77,-272.83,-12,517,-947,23.8,4.3,-19.9,23.5,4.4,-19.7,5.73,1.97,-14.0,28.3
2016-03-19 00:58:00,0.0,,,,,,,,,,,,,,,,,,0.09,-272.76,-272.82,-12,517,-947,23.8,4.3,-19.8,23.5,4.5,-19.6,5.73,1.87,-14.0,28.2
2016-03-19 00:59:00,0.0,,,,,,,,,,,,,,,,,,0.09,-272.76,-272.82,-12,517,-947,23.8,4.3,-19.8,23.5,4.5,-19.6,5.73,1.83,-14.0,28.2
2016-03-19 01:00:00,0.0,,,,,,,,,,,,,,,,,,0.09,-272.77,-272.83,-12,517,-947,23.8,4.4,-19.7,23.5,4.5,-19.6,5.73,1.88,-14.0,28.2
2016-03-19 01:01:00,0.0,,,,,,,,,,,,,,,,,,0.09,-272.77,-272.82,-12,517,-947,23.8,4.4,-19.7,23.5,4.5,-19.5,5.73,1.98,-14.0,28.2
2016-03-19 01:02:00,0.0,,,,,,,,,,,,,,,,,,0.09,-272.76,-272.82,-11,517,-947,23.8,4.3,-19.8,23.5,4.5,-19.5,5.73,2.07,-14.0,28.2
2016-03-19 01:03:00,0.0,,,,,,,,,,,,,,,,,,0.09,-272.77,-272.83,-11,517,-947,23.7,4.3,-19.8,23.5,4.5,-19.6,5.73,2.04,-14.0,28.2
2016-03-19 01:04:00,0.0,,,,,,,,,,,,,,,,,,0.09,-272.77,-272.84,-11,517,-947,23.7,4.3,-19.8,23.5,4.5,-19.5,5.73,1.91,-14.0,28.2
2016-03-19 01:05:00,0.0,,,,,,,,,,,,,,,,,,0.09,-272.75,-272.82,-11,517,-947,23.7,4.3,-19.8,23.5,4.5,-19.6,5.73,1.83,-14.0,28.2
2016-03-19 01:06:00,0.0,,,,,,,,,,,,,,,,,,0.09,-272.76,-272.83,-11,517,-947,23.7,4.3,-19.8,23.5,4.5,-19.5,5.73,1.86,-14.0,28.1
2016-03-19 01:07:00,0.0,,,,,,,,,,,,,,,,,,0.08,-272.78,-272.83,-12,517,-947,23.7,4.3,-19.8,23.5,4.5,-19.6,5.73,1.98,-14.0,28.1
2016-03-19 01:08:00,0.0,,,,,,,,,,,,,,,,,,0.09,-272.77,-272.82,-12,517,-947,23.7,4.4,-19.8,23.4,4.5,-19.6,5.73,2.05,-14.0,28.1
2016-03-19 01:09:00,0.0,,,,,,,,,,,,,,,,,,0.09,-272.77,-272.82,-12,517,-947,23.7,4.4,-19.7,23.5,4.5,-19.5,5.73,2.04,-14.0,28.1
2016-03-19 01:10:00,0.0,,,,,,,,,,,,,,,,,,0.09,-272.77,-272.83,-12,517,-947,23.7,4.4,-19.7,23.5,4.5,-19.5,5.73,1.96,-14.0,28.1
2016-03-19 01:11:00,0.0,,,,,,,,,,,,,,,,,,0.09,-272.76,-272.83,-11,517,-946,23.7,4.4,-19.7,23.4,4.6,-19.4,5.73,1.87,-14.0,28.1
2016-03-19 01:12:00,0.0,,,,,,,,,,,,,,,,,,0.09,-272.76,-272.82,-11,517,-947,23.7,4.4,-19.7,23.4,4.5,-19.5,5.73,1.83,-14.0,28.1
2016-03-19 01:13:00,0.0,,,,,,,,,,,,,,,,,,0.09,-272.77,-272.82,-11,517,-946,23.7,4.4,-19.8,23.4,4.5,-19.5,5.73,1.90,-14.0,28.1
2016-03-19 01:14:00,0.0,,,,,,,,,,,,,,,,,,0.09,-272.77,-272.82,-11,517,-947,23.7,4.4,-19.8,23.4,4.5,-19.5,5.73,2.02,-14.0,28.1
2016-03-19 01:15:00,0.0,,,,,,,,,,,,,,,,,,0.09,-272.76,-272.82,-11,517,-947,23.7,4.3,-19.8,23.4,4.5,-19.5,5.73,2.06,-13.9,28.1
2016-03-19 01:16:00,0.0,,,,,,,,,,,,,,,,,,0.09,-272.77,-272.82,-11,517,-946,23.7,4.4,-19.6,23.4,4.5,-19.5,5.73,2.02,-13.9,28.1
2016-03-19 01:17:00,0.0,,,,,,,,,,,,,,,,,,0.09,-272.77,-272.84,-11,517,-946,23.7,4.4,-19.6,23.4,4.6,-19.4,5.73,1.93,-13.9,28.1
2016-03-19 01:18:00,0.0,,,,,,,,,,,,,,,,,,0.09,-272.76,-272.83,-11,517,-946,23.7,4.4,-19.6,23.4,4.6,-19.4,5.73,1.86,-13.9,28.1
2016-03-19 01:19:00,0.0,,,,,,,,,,,,,,,,,,0.09,-272.76,-272.82,-12,517,-946,23.7,4.4,-19.6,23.4,4.6,-19.3,5.73,1.86,-13.9,28.0
2016-03-19 01:20:00,0.0,,,,,,,,,,,,,,,,,,0.09,-272.77,-272.83,-12,517,-946,23.7,4.4,-19.6,23.4,4.6,-19.4,5.73,1.90,-13.9,28.0
2016-03-19 01:21:00,0.0,,,,,,,,,,,,,,,,,,0.09,-272.78,-272.82,-12,517,-946,23.6,4.4,-19.6,23.4,4.6,-19.3,5.73,1.98,-13.9,28.0
2016-03-19 01:22:00,0.0,,,,,,,,,,,,,,,,,,0.09,-272.77,-272.82,-12,517,-946,23.6,4.4,-19.6,23.4,4.6,-19.3,5.73,2.06,-13.9,28.0
2016-03-19 01:23:00,0.0,,,,,,,,,,,,,,,,,,0.09,-272.77,-272.83,-11,517,-946,23.6,4.4,-19.7,23.4,4.6,-19.4,5.73,2.04,-13.9,28.0
2016-03-19 01:24:00,0.0,,,,,,,,,,,,,,,,,,0.08,-272.77,-272.83,-11,516,-946,23.6,4.4,-19.6,23.4,4.6,-19.4,5.73,1.93,-13.9,28.0
2016-03-19 01:25:00,0.0,,,,,,,,,,,,,,,,,,0.09,-272.76,-272.82,-11,516,-946,23.6,4.4,-19.7,23.4,4.6,-19.4,5.73,1.83,-13.9,28.0
2016-03-19 01:26:00,0.0,,,,,,,,,,,,,,,,,,0.09,-272.76,-272.82,-11,516,-946,23.6,4.4,-19.6,23.3,4.6,-19.4,5.73,1.86,-13.9,28.0
2016-03-19 01:27:00,0.0,,,,,,,,,,,,,,,,,,0.09,-272.77,-272.83,-11,516,-946,23.6,4.5,-19.5,23.3,4.6,-19.3,5.73,1.95,-13.9,28.0
2016-03-19 01:28:00,0.0,,,,,,,,,,,,,,,,,,0.09,-272.77,-272.83,-11,516,-946,23.6,4.5,-19.4,23.3,4.7,-19.3,5.73,2.03,-13.9,28.0
2016-03-19 01:29:00,0.0,,,,,,,,,,,,,,,,,,0.09,-272.76,-272.82,-11,516,-946,23.6,4.5,-19.4,23.3,4.7,-19.2,5.73,2.05,-13.9,28.0
2016-03-19 01:30:00,0.0,,,,,,,,,,,,,,,,,,0.09,-272.76,-272.83,-11,516,-946,23.6,4.5,-19.4,23.3,4.7,-19.2,5.73,2.00,-13.9,28.0
2016-03-19 01:31:00,0.0,,,,,,,,,,,,,,,,,,0.09,-272.76,-272.83,-11,516,-946,23.6,4.5,-19.5,23.3,4.7,-19.2,5.73,1.92,-13.9,28.0
2016-03-19 01:32:00,0.0,,,,,,,,,,,,,,,,,,0.09,-272.76,-272.83,-12,516,-946,23.6,4.5,-19.5,23.3,4.6,-19.3,5.73,1.85,-13.9,27.9
2016-03-19 01:33:00,0.0,,,,,,,,,,,,,,,,,,0.09,-272.77,-272.83,-11,516,-946,23.6,4.5,-19.4,23.3,4.7,-19.3,5.73,1.85,-13.8,28.0
2016-03-19 01:34:00,0.0,,,,,,,,,,,,,,,,,,0.09,-272.77,-272.83,-11,516,-946,23.6,4.5,-19.4,23.3,4.7,-19.2,5.73,1.92,-13.9,27.9
2016-03-19 01:35:00,0.0,,,,,,,,,,,,,,,,,,0.09,-272.77,-272.82,-11,516,-946,23.6,4.5,-19.5,23.3,4.7,-19.2,5.73,2.00,-13.8,27.9
2016-03-19 01:36:00,0.0,,,,,,,,,,,,,,,,,,0.09,-272.76,-272.83,-11,516,-946,23.6,4.5,-19.6,23.3,4.6,-19.3,5.73,2.05,-13.8,27.9
2016-03-19 01:37:00,0.0,,,,,,,,,,,,,,,,,,0.08,-272.77,-272.82,-11,516,-946,23.6,4.4,-19.7,23.3,4.6,-19.5,5.73,2.05,-13.8,27.9
2016-03-19 01:38:00,0.0,,,,,,,,,,,,,,,,,,0.09,-272.76,-272.82,-11,516,-946,23.5,4.4,-19.7,23.3,4.6,-19.5,5.73,1.95,-13.8,27.9
2016-03-19 01:39:00,0.0,,,,,,,,,,,,,,,,,,0.09,-272.76,-272.82,-11,516,-946,23.5,4.4,-19.7,23.3,4.6,-19.5,5.73,1.86,-13.8,27.9
2016-03-19 01:40:00,0.0,,,,,,,,,,,,,,,,,,0.09,-272.77,-272.83,-11,516,-946,23.5,4.5,-19.6,23.3,4.6,-19.4,5.73,1.83,-13.8,27.9
2016-03-19 01:41:00,0.0,,,,,,,,,,,,,,,,,,0.09,-272.77,-272.83,-11,516,-946,23.5,4.4,-19.7,23.3,4.6,-19.4,5.73,1.90,-13.8,27.9
2016-03-19 01:42:00,0.0,,,,,,,,,,,,,,,,,,0.09,-272.76,-272.82,-11,516,-946,23.5,4.4,-19.7,23.3,4.6,-19.5,5.73,1.99,-13.8,27.9
2016-03-19 01:43:00,0.0,,,,,,,,,,,,,,,,,,0.09,-272.76,-272.82,-12,516,-946,23.5,4.4,-19.7,23.3,4.6,-19.4,5.73,2.05,-13.8,27.9
2016-03-19 01:44:00,0.0,,,,,,,,,,,,,,,,,,0.08,-272.77,-272.83,-12,516,-946,23.5,4.4,-19.8,23.3,4.6,-19.5,5.73,2.04,-13.8,27.8
2016-03-19 01:45:00,0.0,,,,,,,,,,,,,,,,,,0.09,-272.77,-272.83,-12,516,-946,23.5,4.4,-19.8,23.2,4.5,-19.6,5.73,1.96,-13.8,27.9
2016-03-19 01:46:00,0.0,,,,,,,,,,,,,,,,,,0.09,-272.76,-272.82,-11,516,-946,23.5,4.4,-19.8,23.2,4.6,-19.6,5.73,1.86,-13.7,27.9
2016-03-19 01:47:00,0.0,,,,,,,,,,,,,,,,,,0.09,-272.77,-272.83,-11,516,-946,23.5,4.4,-19.7,23.2,4.6,-19.5,5.73,1.84,-13.8,27.9
2016-03-19 01:48:00,0.0,,,,,,,,,,,,,,,,,,0.09,-272.77,-272.83,-11,516,-946,23.5,4.4,-19.7,23.2,4.6,-19.5,5.73,1.89,-13.7,27.9
2016-03-19 01:49:00,0.0,,,,,,,,,,,,,,,,,,0.09,-272.76,-272.82,-11,516,-946,23.5,4.5,-19.6,23.2,4.6,-19.4,5.73,1.98,-13.7,27.9
2016-03-19 01:50:00,0.0,,,,,,,,,,,,,,,,,,0.09,-272.77,-272.82,-11,516,-946,23.5,4.5,-19.5,23.2,4.7,-19.3,5.73,2.04,-13.7,27.9
2016-03-19 01:51:00,0.0,,,,,,,,,,,,,,,,,,0.08,-272.77,-272.83,-11,516,-946,23.5,4.5,-19.5,23.2,4.7,-19.3,5.73,2.06,-13.7,27.9
2016-03-19 01:52:00,0.0,,,,,,,,,,,,,,,,,,0.09,-272.76,-272.82,-11,516,-946,23.5,4.5,-19.5,23.2,4.7,-19.3,5.73,1.96,-13.7,27.9
2016-03-19 01:53:00,0.0,,,,,,,,,,,,,,,,,,0.09,-272.76,-272.82,-11,516,-946,23.5,4.5,-19.5,23.2,4.7,-19.3,5.73,1.85,-13.7,27.9
2016-03-19 01:54:00,0.0,1.93425,0.00027,405.140,0.036,0.0259,0.0022,139.998,46.731,31770.55018,1.93472,405.264,31.813,45.071,45.000,0.00,0.09,-272.77,-272.83,-11,516,-946,23.5,4.5,-19.5,23.2,4.7,-19.3,5.73,1.84,-13.7,27.9
2016-03-19 01:55:00,0.0,1.93476,0.00060,405.162,0.050,0.0267,0.0021,139.997,46.692,31741.31039,1.93522,405.292,31.812,45.071,45.000,0.00,0.09,-272.77,-272.82,-11,516,-946,23.5,4.5,-19.5,23.2,4.7,-19.3,5.73,1.91,-13.7,27.9
2016-03-19 01:56:00,0.0,1.93561,0.00035,405.260,0.036,0.0264,0.0017,139.993,46.638,31700.17250,1.93609,405.387,31.755,45.071,45.000,0.00,0.09,-272.76,-272.82,-11,516,-946,23.5,4.5,-19.5,23.2,4.7,-19.2,5.73,1.99,-13.7,27.8
2016-03-19 01:57:00,0.0,,,,,,,,,,,,,,,,,,0.09,-272.77,-272.83,-12,516,-946,23.5,4.5,-19.5,23.2,4.7,-19.3,5.73,2.04,-13.7,27.9
2016-03-19 01:58:00,0.0,,,,,,,,,,,,,,,,,,0.09,-272.77,-272.83,-11,516,-946,23.5,4.5,-19.6,23.2,4.7,-19.3,5.73,2.04,-13.7,27.8
2016-03-19 01:59:00,0.0,,,,,,,,,,,,,,,,,,0.09,-272.76,-272.82,-11,516,-946,23.5,4.5,-19.5,23.2,4.7,-19.3,5.73,1.97,-13.7,27.8
2016-03-19 02:00:00,0.0,,,,,,,,,,,,,,,,,,0.09,-272.77,-272.83,-11,516,-946,23.5,4.5,-19.6,23.2,4.7,-19.4,5.73,1.89,-13.7,27.9
2016-03-19 02:01:00,0.0,,,,,,,,,,,,,,,,,,0.09,-272.77,-272.83,-11,516,-946,23.5,4.5,-19.6,23.2,4.6,-19.4,5.73,1.85,-13.7,27.8
2016-03-19 02:02:00,0.0,,,,,,,,,,,,,,,,,,0.09,-272.76,-272.83,-11,516,-946,23.5,4.5,-19.6,23.2,4.7,-19.3,5.73,1.87,-13.7,27.8
2016-03-19 02:03:00,0.0,,,,,,,,,,,,,,,,,,0.09,-272.76,-272.82,-11,516,-946,23.5,4.5,-19.6,23.2,4.7,-19.4,5.73,1.94,-13.7,27.8
2016-03-19 02:04:00,0.0,,,,,,,,,,,,,,,,,,0.09,-272.77,-272.82,-11,516,-946,23.4,4.5,-19.7,23.2,4.6,-19.4,5.73,2.02,-13.6,27.8
2016-03-19 02:05:00,0.0,,,,,,,,,,,,,,,,,,0.09,-272.77,-272.82,-11,516,-946,23.4,4.5,-19.7,23.2,4.6,-19.4,5.73,2.06,-13.6,27.8
2016-03-19 02:06:00,0.0,,,,,,,,,,,,,,,,,,0.09,-272.77,-272.81,-11,516,-946,23.4,4.5,-19.7,23.2,4.6,-19.5,5.73,2.02,-13.6,27.8
2016-03-19 02:07:00,0.0,,,,,,,,,,,,,,,,,,0.09,-272.76,-272.83,-11,516,-946,23.5,4.5,-19.6,23.2,4.6,-19.4,5.73,1.92,-13.6,27.8
2016-03-19 02:08:00,0.0,,,,,,,,,,,,,,,,,,0.09,-272.77,-272.83,-11,516,-946,23.5,4.5,-19.6,23.2,4.7,-19.3,5.73,1.86,-13.6,27.8
2016-03-19 02:09:00,0.0,,,,,,,,,,,,,,,,,,0.09,-272.76,-272.83,-11,516,-946,23.4,4.5,-19.5,23.2,4.7,-19.3,5.73,1.85,-13.6,27.8
2016-03-19 02:10:00,0.0,,,,,,,,,,,,,,,,,,0.09,-272.76,-272.82,-11,516,-946,23.5,4.5,-19.5,23.2,4.7,-19.3,5.73,1.91,-13.6,27.8
2016-03-19 02:11:00,0.0,,,,,,,,,,,,,,,,,,0.09,-272.77,-272.83,-11,516,-946,23.4,4.5,-19.5,23.2,4.7,-19.3,5.73,2.00,-13.6,27.8
2016-03-19 02:12:00,0.0,,,,,,,,,,,,,,,,,,0.09,-272.77,-272.82,-11,516,-946,23.4,4.6,-19.4,23.2,4.7,-19.2,5.73,2.06,-13.6,27.8
2016-03-19 02:13:00,0.0,,,,,,,,,,,,,,,,,,0.09,-272.77,-272.82,-11,516,-946,23.4,4.6,-19.4,23.2,4.7,-19.2,5.73,2.04,-13.6,27.8
2016-03-19 02:14:00,0.0,,,,,,,,,,,,,,,,,,0.09,-272.77,-272.83,-11,516,-946,23.4,4.5,-19.5,23.2,4.7,-19.2,5.73,1.95,-13.6,27.8
2016-03-19 02:15:00,0.0,,,,,,,,,,,,,,,,,,0.09,-272.77,-272.83,-11,516,-946,23.4,4.5,-19.5,23.2,4.7,-19.3,5.73,1.88,-13.6,27.8
2016-03-19 02:16:00,0.0,,,,,,,,,,,,,,,,,,0.09,-272.76,-272.82,-11,516,-946,23.5,4.6,-19.4,23.2,4.7,-19.2,5.73,1.85,-13.6,27.8
2016-03-19 02:17:00,0.0,,,,,,,,,,,,,,,,,,0.09,-272.77,-272.83,-11,516,-946,23.5,4.6,-19.4,23.2,4.7,-19.2,5.73,1.88,-13.6,27.8
2016-03-19 02:18:00,0.0,,,,,,,,,,,,,,,,,,0.09,-272.77,-272.83,-11,516,-946,23.5,4.6,-19.4,23.2,4.7,-19.2,5.73,1.94,-13.6,27.8
2016-03-19 02:19:00,0.0,,,,,,,,,,,,,,,,,,0.09,-272.77,-272.82,-11,516,-946,23.5,4.5,-19.5,23.2,4.7,-19.2,5.73,2.02,-13.6,27.8
2016-03-19 02:20:00,0.0,,,,,,,,,,,,,,,,,,0.09,-272.77,-272.82,-11,516,-946,23.5,4.5,-19.5,23.2,4.7,-19.2,5.73,2.05,-13.5,27.8
2016-03-19 02:21:00,0.0,,,,,,,,,,,,,,,,,,0.08,-272.77,-272.83,-12,516,-946,23.5,4.5,-19.6,23.2,4.7,-19.3,5.73,2.02,-13.5,27.8
2016-03-19 02:22:00,0.0,,,,,,,,,,,,,,,,,,0.09,-272.76,-272.83,-12,516,-946,23.4,4.5,-19.6,23.2,4.7,-19.4,5.73,1.93,-13.5,27.8
2016-03-19 02:23:00,0.0,,,,,,,,,,,,,,,,,,0.09,-272.76,-272.83,-12,516,-946,23.4,4.5,-19.6,23.2,4.7,-19.4,5.73,1.86,-13.5,27.8
2016-03-19 02:24:00,0.0,,,,,,,,,,,,,,,,,,0.09,-272.77,-272.83,-12,516,-946,23.4,4.5,-19.5,23.2,4.7,-19.3,5.73,1.85,-13.5,27.8
2016-03-19 02:25:00,0.0,,,,,,,,,,,,,,,,,,0.09,-272.77,-272.83,-11,516,-946,23.5,4.5,-19.6,23.2,4.7,-19.3,5.73,1.91,-13.5,27.8
2016-03-19 02:26:00,0.0,,,,,,,,,,,,,,,,,,0.09,-272.76,-272.82,-11,516,-946,23.5,4.5,-19.6,23.2,4.7,-19.3,5.73,2.00,-13.5,27.8
2016-03-19 02:27:00,0.0,,,,,,,,,,,,,,,,,,0.09,-272.77,-272.83,-11,516,-946,23.5,4.5,-19.6,23.2,4.7,-19.3,5.73,2.04,-13.5,27.8
2016-03-19 02:28:00,0.0,,,,,,,,,,,,,,,,,,0.09,-272.77,-272.83,-11,516,-946,23.5,4.5,-19.6,23.2,4.7,-19.3,5.73,2.04,-13.5,27.8
2016-03-19 02:29:00,0.0,,,,,,,,,,,,,,,,,,0.09,-272.77,-272.83,-11,516,-946,23.5,4.5,-19.5,23.2,4.7,-19.3,5.73,1.97,-13.5,27.8
2016-03-19 02:30:00,0.0,,,,,,,,,,,,,,,,,,0.09,-272.76,-272.82,-11,516,-946,23.5,4.5,-19.6,23.2,4.7,-19.4,5.73,1.88,-13.5,27.8
2016-03-19 02:31:00,0.0,,,,,,,,,,,,,,,,,,0.09,-272.77,-272.83,-11,516,-945,23.5,4.4,-19.7,23.2,4.6,-19.5,5.73,1.84,-13.4,27.7
2016-03-19 02:32:00,0.0,,,,,,,,,,,,,,,,,,0.09,-272.76,-272.82,-11,516,-945,23.5,4.4,-19.7,23.2,4.6,-19.5,5.73,1.87,-13.4,27.8
2016-03-19 02:33:00,0.0,,,,,,,,,,,,,,,,,,0.09,-272.77,-272.81,-11,516,-945,23.5,4.4,-19.7,23.2,4.6,-19.5,5.73,1.97,-13.4,27.8
2016-03-19 02:34:00,0.0,,,,,,,,,,,,,,,,,,0.09,-272.77,-272.82,-12,516,-946,23.5,4.4,-19.7,23.2,4.6,-19.5,5.73,2.04,-13.4,27.8
2016-03-19 02:35:00,0.0,,,,,,,,,,,,,,,,,,0.08,-272.76,-272.83,-12,516,-945,23.5,4.4,-19.7,23.2,4.6,-19.5,5.73,2.05,-13.4,27.8
2016-03-19 02:36:00,0.0,,,,,,,,,,,,,,,,,,0.09,-272.76,-272.83,-12,516,-945,23.5,4.4,-19.7,23.2,4.6,-19.5,5.73,1.98,-13.4,27.8
2016-03-19 02:37:00,0.0,,,,,,,,,,,,,,,,,,0.09,-272.76,-272.83,-12,516,-946,23.5,4.4,-19.7,23.2,4.6,-19.5,5.73,1.90,-13.4,27.8
2016-03-19 02:38:00,0.0,,,,,,,,,,,,,,,,,,0.09,-272.77,-272.83,-12,516,-945,23.5,4.4,-19.7,23.2,4.6,-19.6,5.73,1.84,-13.4,27.8
2016-03-19 02:39:00,0.0,,,,,,,,,,,,,,,,,,0.09,-272.76,-272.82,-11,516,-945,23.5,4.4,-19.7,23.2,4.6,-19.5,5.73,1.86,-13.4,27.8
2016-03-19 02:40:00,0.0,,,,,,,,,,,,,,,,,,0.09,-272.76,-272.82,-11,516,-945,23.5,4.4,-19.8,23.2,4.6,-19.5,5.73,1.95,-13.3,27.8
2016-03-19 02:41:00,0.0,,,,,,,,,,,,,,,,,,0.09,-272.78,-272.83,-11,516,-945,23.5,4.4,-19.7,23.2,4.6,-19.5,5.73,2.03,-13.3,27.8
2016-03-19 02:42:00,0.0,,,,,,,,,,,,,,,,,,0.09,-272.77,-272.83,-11,516,-945,23.5,4.4,-19.7,23.2,4.6,-19.5,5.73,2.06,-13.3,27.8
2016-03-19 02:43:00,0.0,,,,,,,,,,,,,,,,,,0.09,-272.76,-272.82,-11,516,-945,23.5,4.4,-19.7,23.2,4.6,-19.5,5.73,2.00,-13.3,27.8
2016-03-19 02:44:00,0.0,,,,,,,,,,,,,,,,,,0.09,-272.76,-272.83,-11,516,-945,23.5,4.4,-19.7,23.2,4.6,-19.5,5.73,1.91,-13.3,27.8
2016-03-19 02:45:00,0.0,,,,,,,,,,,,,,,,,,0.09,-272.77,-272.83,-11,516,-945,23.5,4.5,-19.6,23.2,4.6,-19.4,5.73,1.84,-13.3,27.8
2016-03-19 02:46:00,0.0,,,,,,,,,,,,,,,,,,0.09,-272.76,-272.82,-12,516,-945,23.5,4.5,-19.6,23.2,4.6,-19.4,5.73,1.86,-13.3,27.8
2016-03-19 02:47:00,0.0,,,,,,,,,,,,,,,,,,0.09,-272.76,-272.82,-12,516,-945,23.5,4.5,-19.6,23.2,4.6,-19.4,5.73,1.94,-13.3,27.8
2016-03-19 02:48:00,0.0,,,,,,,,,,,,,,,,,,0.09,-272.77,-272.83,-12,516,-945,23.5,4.5,-19.6,23.2,4.6,-19.4,5.73,2.01,-13.3,27.8
2016-03-19 02:49:00,0.0,,,,,,,,,,,,,,,,,,0.09,-272.77,-272.83,-12,516,-945,23.5,4.5,-19.5,23.2,4.6,-19.4,5.73,2.05,-13.3,27.8
2016-03-19 02:50:00,0.0,,,,,,,,,,,,,,,,,,0.09,-272.76,-272.83,-12,516,-945,23.6,4.5,-19.5,23.2,4.7,-19.3,5.73,2.02,-13.3,27.8
2016-03-19 02:51:00,0.0,,,,,,,,,,,,,,,,,,0.09,-272.76,-272.83,-11,516,-945,23.6,4.5,-19.4,23.2,4.7,-19.3,5.73,1.95,-13.3,27.8
2016-03-19 02:52:00,0.0,,,,,,,,,,,,,,,,,,0.09,-272.76,-272.83,-11,516,-946,23.6,4.5,-19.4,23.2,4.7,-19.2,5.73,1.86,-13.2,27.8
2016-03-19 02:53:00,0.0,,,,,,,,,,,,,,,,,,0.09,-272.76,-272.82,-11,516,-946,23.5,4.6,-19.4,23.2,4.7,-19.2,5.73,1.84,-13.2,27.8
2016-03-19 02:54:00,0.0,1.93425,0.00027,405.140,0.036,0.0259,0.0022,139.998,46.731,31770.55018,1.93472,405.264,31.813,45.071,45.000,0.00,0.09,-272.77,-272.83,-11,516,-946,23.6,4.6,-19.4,23.2,4.7,-19.2,5.73,1.90,-13.2,27.8
2016-03-19 02:55:00,0.0,1.93476,0.00060,405.162,0.050,0.0267,0.0021,139.997,46.692,31741.31039,1.93522,405.292,31.812,45.071,45.000,0.00,0.09,-272.78,-272.82,-11,516,-945,23.6,4.6,-19.4,23.2,4.8,-19.1,5.73,1.98,-13.2,27.8
2016-03-19 02:56:00,0.0,1.93561,0.00035,405.260,0.036,0.0264,0.0017,139.993,46.638,31700.17250,1.93609,405.387,31.755,45.071,45.000,0.00,0.09,-272.77,-272.83,-11,516,-946,23.6,4.6,-19.3,23.2,4.7,-19.1,5.73,2.05,-13.2,27.8
2016-03-19 02:57:00,0.0,,,,,,,,,,,,,,,,,,0.09,-272.76,-272.82,-11,516,-945,23.6,4.6,-19.3,23.2,4.8,-19.1,5.73,2.04,-13.2,27.8
2016-03-19 02:58:00,0.0,,,,,,,,,,,,,,,,,,0.09,-272.77,-272.83,-12,516,-946,23.6,4.5,-19.4,23.2,4.7,-19.2,5.73,1.96,-13.2,27.9